[[{"header":{"parameterUnit":"m.s-1","parameterCategory":1,"la1":30.2991,"la2":30.254,"lo1":-89.0895,"lo2":-89.0444,"dy":0.0017,"dx":0.0017,"nx":28,"ny":28,"refTime":"2024-06-25T03:00:00:Z","depth":0,"parameterNumber":2,"parameterNumberName":"U-component_of_WINDS"},"data":[0,0,0,0,0,0,0,0,0,0,0,0,0,0,0,0,0,0,0,0,0,0,0,0,0,0,0,0,0,0,0,0,0,0,0,0,0,0,0,0,0,0,0,0,0,0,0,0,0,0,0,0,0,0,0,0,0,0,0.7024,0.7026,0,0.7188,0.719,0.7191,0.7206,0.7205,0.7203,0.7201,0.7373,0.7379,0.7385,0,0,0,0,0,0,0,0,0,0,0,0,0,0.6731,0.6736,0.7024,0.7026,0.7028,0.7187,0.719,0.7192,0.7207,0.7204,0.7202,0.72,0.7371,0.7379,0.7386,0,0,0,0,0,0,0,0,0,0,0,0,0,0.6873,0.6738,0.7024,0.7055,0.7059,0.7187,0.719,0.7192,0.7207,0.7204,0.7202,0.7199,0.7369,0.7378,0.7387,0.7497,0,0,0.7416,0.742,0,0,0,0,0,0,0,0,0.6865,0.6884,0.7048,0.7053,0.7058,0.7174,0.7149,0.7295,0.7208,0.7151,0.7201,0.7198,0.7309,0.7323,0.736,0.7505,0.7512,0.7416,0.7422,0.7426,0.7429,0,0,0,0,0,0,0,0.6855,0.6877,0.7089,0.7051,0.7057,0.7062,0.708,0.7177,0.7243,0.7156,0.7157,0.7176,0.7312,0.7351,0.7364,0.7515,0.7416,0.7424,0.743,0.7434,0.7762,0.7765,0,0,0,0,0,0,0.6838,0.6868,0.7084,0.7094,0.6953,0.707,0.7089,0.7139,0.7242,0.7255,0.7178,0.7176,0.7336,0.7353,0.737,0.7508,0.7426,0.7435,0.744,0.7759,0.7763,0.7766,0,0,0,0,0,0,0.6832,0.6858,0.7077,0.6982,0.701,0.7077,0.7134,0.7144,0.7183,0.7259,0.7271,0.7206,0.7335,0.7357,0.7466,0.7514,0.7439,0.7447,0.7755,0.776,0.7764,0.7783,0,0,0,0,0,0,0.6824,0.6855,0.6896,0.6982,0.7015,0.7168,0.7137,0.7149,0.7199,0.7198,0.7288,0.7301,0.7335,0.7452,0.7475,0.7526,0.7455,0.7751,0.7757,0.7763,0.7779,0.7788,0.7796,0,0,0,0,0,0.6813,0.6895,0.6898,0.6924,0.7067,0.7171,0.719,0.7226,0.7202,0.7246,0.7294,0.7298,0.7505,0.7463,0.7489,0.7543,0.7748,0.7756,0.7762,0.7775,0.7786,0.7796,0,0,0,0,0,0,0.6814,0.6907,0.6911,0.7023,0.7089,0.7173,0.7228,0.7236,0.7311,0.7307,0.735,0.7371,0.7478,0.7521,0.7473,0.7657,0.7624,0.7637,0.7625,0.7636,0.7645,0.7634,0.7462,0,0,0,0,0,0.6827,0.6902,0.698,0.7071,0.7104,0.716,0.7207,0.7229,0.7299,0.7328,0.7384,0.7454,0.7535,0.7588,0.7666,0.7784,0.7806,0.7835,0.7844,0.785,0.7862,0.7931,0.7945,0.7789,0.7789,0.7789,0,0,0.6855,0.6915,0.696,0.7073,0.7127,0.7205,0.7184,0.7267,0.7327,0.7341,0.7447,0.7491,0.7572,0.7687,0.774,0.7726,0.7909,0.7859,0.7864,0.7872,0.7939,0.7954,0.7967,0.7794,0.7793,0.7792,0,0,0.6948,0.6999,0.7083,0.7137,0.7218,0.7255,0.7275,0.7358,0.7388,0.7495,0.7508,0.758,0.7718,0.7776,0.7824,0.7939,0.7947,0.7964,0.801,0.8077,0.8089,0.8101,0.8145,0.816,0.7974,0.7974,0.7974,0,0.6973,0.7091,0.7125,0.7209,0.726,0.7274,0.7361,0.7412,0.7515,0.7551,0.7533,0.7708,0.7763,0.7893,0.7921,0.7958,0.7985,0.7955,0.8084,0.8096,0.8107,0.815,0.8166,0.7976,0.7976,0.7976,0.7975,0,0.712,0.7201,0.7259,0.7357,0.7414,0.7499,0.7548,0.7602,0.7619,0.7659,0.777,0.7837,0.793,0.7962,0.798,0.8096,0.8085,0.8075,0.8044,0.8123,0.8165,0.8181,0.7979,0.7978,0.7977,0.7977,0,0,0.7218,0.7335,0.7356,0.7402,0.7493,0.7558,0.7644,0.7734,0.7781,0.7852,0.7928,0.8044,0.8037,0.809,0.8115,0.8173,0.8265,0.8157,0.816,0.8177,0.84,0.8409,0.8427,0.8269,0.8272,0.8275,0.8394,0,0.7323,0.7476,0.751,0.7643,0.772,0.7736,0.7812,0.7877,0.7917,0.799,0.8034,0.8118,0.8099,0.8133,0.819,0.8241,0.8311,0.8232,0.8343,0.8346,0.8325,0.8448,0.8458,0.8567,0.841,0.8413,0.8415,0,0.7466,0.754,0.768,0.7763,0.7797,0.7864,0.7951,0.8019,0.8095,0.812,0.8181,0.82,0.8293,0.8255,0.8386,0.8332,0.8379,0.8411,0.8416,0.8431,0.8387,0.8469,0.8603,0.8621,0.844,0.8438,0.8436,0,0.7528,0.7662,0.7764,0.7802,0.7901,0.7948,0.7992,0.8064,0.8117,0.8193,0.8229,0.8315,0.8363,0.8431,0.8474,0.8442,0.8603,0.8568,0.8629,0.8628,0.8664,0.8662,0.8811,0.8689,0.8689,0.8689,0.8689,0,0.7643,0.7729,0.7793,0.7856,0.7954,0.7993,0.8089,0.8133,0.8198,0.8272,0.829,0.8359,0.841,0.8487,0.8521,0.8626,0.8647,0.8672,0.8681,0.8672,0.8669,0.8706,0.87,0.8693,0.8692,0.8691,0.8691,0,0.773,0.7775,0.7888,0.7972,0.7995,0.8064,0.8137,0.82,0.824,0.8333,0.8357,0.8421,0.8513,0.8561,0.8676,0.8699,0.8818,0.8821,0.8793,0.8797,0.8857,0.8852,0.9037,0.9064,0.8921,0.8923,0.8924,0,0.7802,0.7868,0.7959,0.8009,0.8054,0.8134,0.8188,0.8229,0.8285,0.8377,0.843,0.8522,0.8599,0.8745,0.8803,0.8892,0.8899,0.8957,0.8912,0.8903,0.8904,0.89,0.8909,0.8966,0.8968,0.8969,0.8969,0,0.7926,0.7945,0.8022,0.8107,0.8171,0.824,0.8309,0.8349,0.8402,0.8465,0.8558,0.8617,0.8735,0.8828,0.8921,0.8968,0.898,0.8983,0.9002,0.8996,0.8978,0.8992,0.8818,0.8979,0.8978,0.8977,0.8977,0.8977,0.801,0.8071,0.8145,0.823,0.8286,0.835,0.8414,0.8462,0.854,0.8638,0.8658,0.8758,0.8834,0.896,0.901,0.909,0.9079,0.9106,0.9114,0.9121,0.9125,0.8962,0.9107,0.9107,0.9107,0.9106,0.9106,0,0.8138,0.8186,0.8264,0.8359,0.8427,0.8429,0.8506,0.8563,0.865,0.8719,0.8794,0.8903,0.8993,0.9058,0.9151,0.9203,0.9211,0.9226,0.9224,0.9236,0.9128,0.9104,0.9219,0.9219,0.9218,0.9218,0.9218,0.9218,0.8212,0.8317,0.8345,0.8478,0.8527,0.8623,0.8667,0.8728,0.8783,0.8904,0.8978,0.9019,0.9088,0.9186,0.927,0.9287,0.9322,0.9338,0.9356,0.9255,0.9243,0.9232,0.9209,0.9344,0.9344,0.9457,0.9458,0.9459]},{"header":{"parameterUnit":"m.s-1","parameterCategory":1,"la1":30.2991,"la2":30.254,"lo1":-89.0895,"lo2":-89.0444,"dy":0.0017,"dx":0.0017,"nx":28,"ny":28,"refTime":"2024-06-25T03:00:00:Z","depth":0,"parameterNumber":3,"parameterNumberName":"V-component_of_WINDS"},"data":[0,0,0,0,0,0,0,0,0,0,0,0,0,0,0,0,0,0,0,0,0,0,0,0,0,0,0,0,0,0,0,0,0,0,0,0,0,0,0,0,0,0,0,0,0,0,0,0,0,0,0,0,0,0,0,0,0,0,1.2384,1.2386,0,1.2581,1.2583,1.2586,1.2591,1.2588,1.2586,1.2584,1.2788,1.2796,1.2803,0,0,0,0,0,0,0,0,0,0,0,0,0,1.2013,1.202,1.2384,1.2386,1.2389,1.2581,1.2583,1.2586,1.2591,1.2588,1.2585,1.2582,1.2786,1.2795,1.2804,0,0,0,0,0,0,0,0,0,0,0,0,0,1.2189,1.2022,1.2383,1.2414,1.2419,1.258,1.2584,1.2587,1.2592,1.2588,1.2584,1.2581,1.2783,1.2794,1.2805,1.295,0,0,1.2841,1.2846,0,0,0,0,0,0,0,0,1.2179,1.2202,1.2407,1.2412,1.2418,1.2557,1.2528,1.2709,1.2593,1.2526,1.2583,1.2579,1.2714,1.2731,1.2777,1.2959,1.2968,1.2842,1.2849,1.2854,1.2857,0,0,0,0,0,0,0,1.2166,1.2194,1.2462,1.241,1.2417,1.2419,1.244,1.2562,1.2639,1.2532,1.2533,1.2556,1.2717,1.2765,1.2781,1.2971,1.2841,1.2852,1.2859,1.2863,1.3283,1.3287,0,0,0,0,0,0,1.2148,1.2183,1.2456,1.2468,1.2287,1.2428,1.2452,1.2516,1.2637,1.2652,1.2559,1.2555,1.2747,1.2768,1.2789,1.2968,1.2853,1.2864,1.2871,1.3279,1.3284,1.3289,0,0,0,0,0,0,1.214,1.2172,1.2448,1.2326,1.2361,1.2439,1.2511,1.2522,1.2571,1.2657,1.2671,1.2594,1.2745,1.2772,1.291,1.2975,1.287,1.288,1.3274,1.3281,1.3287,1.3325,0,0,0,0,0,0,1.2129,1.2169,1.2224,1.2327,1.2368,1.2565,1.2515,1.2529,1.2591,1.2588,1.2695,1.2709,1.2745,1.2892,1.2921,1.2989,1.2889,1.3269,1.3277,1.3285,1.3319,1.3332,1.3344,0,0,0,0,0,1.2116,1.2228,1.2227,1.226,1.2438,1.2569,1.2592,1.263,1.2596,1.2653,1.2708,1.2705,1.2962,1.2906,1.2939,1.3011,1.3265,1.3275,1.3284,1.3313,1.3329,1.3343,0,0,0,0,0,0,1.2132,1.2242,1.2243,1.2391,1.247,1.2569,1.2643,1.2646,1.2738,1.2732,1.2776,1.28,1.2937,1.2987,1.2923,1.3157,1.3109,1.3126,1.312,1.3137,1.3149,1.3136,1.2899,0,0,0,0,0,1.2152,1.2248,1.2339,1.2461,1.2501,1.2565,1.2623,1.2645,1.273,1.2764,1.2829,1.2912,1.3012,1.3076,1.3172,1.3324,1.3349,1.339,1.3402,1.3412,1.3427,1.3512,1.3532,1.332,1.332,1.332,0,0,1.2196,1.2268,1.2327,1.2467,1.2531,1.263,1.2593,1.27,1.2775,1.278,1.2915,1.2965,1.306,1.3206,1.3274,1.3252,1.349,1.3424,1.3431,1.3441,1.3524,1.3544,1.3562,1.3326,1.3325,1.3324,0,0,1.2328,1.2391,1.2501,1.2566,1.2663,1.2704,1.273,1.2829,1.2863,1.2998,1.3004,1.3093,1.3263,1.3331,1.3388,1.3544,1.3546,1.3574,1.3641,1.3723,1.374,1.3755,1.3813,1.3833,1.3587,1.3587,1.3587,0,1.2371,1.2521,1.2557,1.2664,1.2726,1.2734,1.2846,1.2907,1.3031,1.3074,1.3047,1.3261,1.3326,1.3488,1.3526,1.3571,1.3603,1.3564,1.3735,1.375,1.3765,1.3821,1.3842,1.359,1.359,1.359,1.3589,0,1.257,1.2674,1.275,1.287,1.294,1.3049,1.3102,1.3168,1.3184,1.3228,1.3366,1.3443,1.3555,1.3594,1.3611,1.376,1.3744,1.3725,1.3679,1.3788,1.3841,1.3862,1.3595,1.3594,1.3593,1.3592,0,0,1.2721,1.2857,1.2885,1.294,1.3047,1.3128,1.3237,1.3346,1.3403,1.3488,1.3582,1.3724,1.3708,1.3772,1.3796,1.3868,1.3989,1.3841,1.3844,1.3868,1.416,1.4176,1.42,1.3989,1.3993,1.3997,1.4153,0,1.2867,1.3061,1.3096,1.3266,1.3363,1.3371,1.3466,1.3542,1.3586,1.3675,1.3723,1.3825,1.3794,1.3833,1.3904,1.3959,1.4049,1.3948,1.4079,1.4083,1.4059,1.4227,1.4244,1.4388,1.4174,1.4177,1.418,0,1.3064,1.3153,1.3332,1.3427,1.3469,1.3554,1.3657,1.3741,1.3828,1.3854,1.3925,1.3941,1.4055,1.4,1.4159,1.409,1.4145,1.4179,1.4186,1.4203,1.4141,1.4251,1.4435,1.4458,1.4213,1.421,1.4208,0,1.3159,1.3324,1.3453,1.3499,1.3611,1.3671,1.3721,1.3804,1.3867,1.3957,1.3999,1.41,1.4157,1.4235,1.4278,1.4233,1.4434,1.4382,1.4461,1.446,1.4506,1.4504,1.4705,1.4536,1.4536,1.4535,1.4535,0,1.332,1.3431,1.3497,1.3577,1.3701,1.3739,1.3861,1.3909,1.3983,1.4073,1.4085,1.4169,1.4218,1.431,1.4343,1.4471,1.4495,1.4521,1.453,1.4522,1.452,1.4562,1.4554,1.4541,1.454,1.4539,1.4538,0,1.345,1.3498,1.364,1.3734,1.3761,1.3848,1.3929,1.4007,1.4049,1.4163,1.4192,1.4259,1.4367,1.4416,1.4549,1.4572,1.4718,1.4718,1.4689,1.4693,1.477,1.4763,1.5008,1.5043,1.4848,1.485,1.4852,0,1.3551,1.3637,1.374,1.38,1.3852,1.3949,1.4014,1.4054,1.4121,1.4225,1.4291,1.4399,1.4488,1.4661,1.4722,1.4824,1.4828,1.4907,1.4844,1.4834,1.4833,1.4829,1.4838,1.4919,1.4921,1.4923,1.4924,0,1.3728,1.3747,1.3839,1.394,1.4017,1.4098,1.4178,1.4227,1.428,1.4354,1.4465,1.4534,1.4669,1.4778,1.4883,1.4935,1.494,1.4943,1.4967,1.4962,1.4944,1.4958,1.4724,1.4938,1.4937,1.4936,1.4935,1.4934,1.3849,1.3925,1.401,1.4112,1.4176,1.425,1.4328,1.438,1.4472,1.4586,1.4603,1.4722,1.4806,1.4948,1.5003,1.5097,1.5078,1.5113,1.5122,1.5131,1.5137,1.4925,1.5116,1.5115,1.5115,1.5115,1.5115,0,1.4028,1.4082,1.4176,1.4287,1.4368,1.4362,1.445,1.4518,1.4622,1.4699,1.4786,1.4914,1.5018,1.5086,1.5192,1.5253,1.5258,1.528,1.5278,1.529,1.5146,1.5116,1.5275,1.5275,1.5274,1.5274,1.5274,1.5274,1.4131,1.4261,1.429,1.4451,1.4505,1.462,1.4671,1.474,1.4802,1.4944,1.503,1.5073,1.5147,1.5258,1.5354,1.5371,1.5411,1.5434,1.5451,1.5316,1.53,1.5284,1.5256,1.5442,1.5442,1.5588,1.5589,1.559]}]]